| time (UTC) | temp F | wind direction | speed MPH | gust MPH | rain 1hr in | rain 24hr in | rain mn in | humidity % | barometer mb |
| 20260906040015 | 48 | 0.0 | 0.0 | 0.00 | 0.00 | 0.00 | 90 | 1023.5 | |
| 20260906035106 | 49 | 0.0 | 0.0 | 0.00 | 0.00 | 0.00 | 89 | 1023.6 | |
| 20260906034104 | 49 | 0.0 | 0.0 | 0.00 | 0.00 | 0.00 | 89 | 1023.5 | |
| 20260906033052 | 50 | 0.0 | 0.0 | 0.00 | 0.00 | 0.00 | 88 | 1023.5 | |
| 20260906032043 | 50 | 225 | 0.0 | 2.0 | 0.00 | 0.00 | 0.00 | 87 | 1023.6 |
| 20260906031039 | 50 | 0.0 | 0.0 | 0.00 | 0.00 | 0.00 | 87 | 1023.5 | |
| 20260906030030 | 50 | 252 | 1.0 | 2.0 | 0.00 | 0.00 | 0.00 | 87 | 1023.3 |
| 20260906025027 | 50 | 229 | 1.0 | 2.0 | 0.00 | 0.00 | 0.00 | 87 | 1023.4 |
| 20260906024019 | 50 | 0.0 | 0.0 | 0.00 | 0.00 | 0.00 | 88 | 1023.3 | |
| 20260906023116 | 50 | 0.0 | 2.0 | 0.00 | 0.00 | 0.00 | 87 | 1023.3 | |
| 20260906022107 | 51 | 225 | 0.0 | 2.0 | 0.00 | 0.00 | 0.00 | 85 | 1023.4 |
| 20260906021103 | 51 | 248 | 0.0 | 2.0 | 0.00 | 0.01 | 0.00 | 85 | 1023.2 |
| 20260906020053 | 51 | 233 | 2.0 | 4.0 | 0.00 | 0.04 | 0.00 | 86 | 1023.2 |
| 20260906015044 | 51 | 235 | 1.0 | 2.0 | 0.00 | 0.06 | 0.00 | 85 | 1023.1 |
| 20260906014040 | 51 | 0.0 | 2.0 | 0.00 | 0.08 | 0.00 | 85 | 1022.9 | |
| 20260906013031 | 52 | 0.0 | 2.0 | 0.00 | 0.08 | 0.00 | 84 | 1022.9 | |
| 20260906012027 | 52 | 0.0 | 0.0 | 0.00 | 0.08 | 0.00 | 84 | 1022.9 | |
| 20260906011017 | 52 | 230 | 1.0 | 2.0 | 0.00 | 0.08 | 0.00 | 82 | 1023.0 |
| 20260906010114 | 53 | 0.0 | 0.0 | 0.00 | 0.08 | 0.00 | 82 | 1022.8 | |
| 20260906005103 | 53 | 248 | 1.0 | 2.0 | 0.00 | 0.08 | 0.00 | 82 | 1022.9 |
| 20260906004058 | 53 | 235 | 1.0 | 2.0 | 0.00 | 0.08 | 0.00 | 81 | 1022.8 |
| 20260906003049 | 54 | 228 | 2.0 | 2.0 | 0.00 | 0.08 | 0.00 | 80 | 1022.9 |
| 20260906002039 | 54 | 241 | 1.0 | 4.0 | 0.00 | 0.08 | 0.00 | 80 | 1022.7 |
| 20260906001030 | 54 | 245 | 1.0 | 2.0 | 0.00 | 0.08 | 0.00 | 79 | 1022.7 |
| 20260906000027 | 54 | 239 | 2.0 | 4.0 | 0.00 | 0.08 | 0.00 | 79 | 1022.8 |
| 20260905235018 | 53 | 225 | 0.0 | 2.0 | 0.00 | 0.08 | 0.00 | 81 | 1022.6 |
| 20260905234115 | 54 | 248 | 0.0 | 2.0 | 0.00 | 0.08 | 0.00 | 81 | 1022.5 |
| 20260905233108 | 54 | 0.0 | 0.0 | 0.00 | 0.08 | 0.00 | 79 | 1022.4 | |
| 20260905232103 | 54 | 0.0 | 0.0 | 0.00 | 0.08 | 0.00 | 79 | 1022.4 | |
| 20260905231053 | 55 | 0.0 | 0.0 | 0.00 | 0.08 | 0.00 | 78 | 1022.4 | |
| 20260905230051 | 55 | 234 | 1.0 | 2.0 | 0.00 | 0.08 | 0.00 | 76 | 1022.2 |
| 20260905225040 | 56 | 236 | 0.0 | 2.0 | 0.00 | 0.08 | 0.00 | 75 | 1022.2 |
| 20260905224039 | 56 | 225 | 1.0 | 2.0 | 0.00 | 0.08 | 0.00 | 75 | 1022.1 |
| 20260905223030 | 57 | 217 | 1.0 | 2.0 | 0.00 | 0.08 | 0.00 | 72 | 1021.9 |
| 20260905222025 | 57 | 240 | 1.0 | 2.0 | 0.00 | 0.08 | 0.00 | 72 | 1021.9 |
| 20260905221015 | 58 | 235 | 1.0 | 4.0 | 0.00 | 0.08 | 0.00 | 71 | 1021.8 |
| 20260905220106 | 58 | 226 | 2.0 | 4.0 | 0.00 | 0.08 | 0.00 | 70 | 1021.8 |
| 20260905215104 | 58 | 225 | 1.0 | 2.0 | 0.00 | 0.08 | 0.08 | 69 | 1021.7 |
| 20260905214056 | 58 | 0.0 | 0.0 | 0.00 | 0.08 | 0.08 | 69 | 1021.6 | |
| 20260905213050 | 59 | 218 | 0.0 | 2.0 | 0.00 | 0.08 | 0.08 | 68 | 1021.4 |
| 20260905212042 | 59 | 240 | 2.0 | 2.0 | 0.00 | 0.08 | 0.08 | 67 | 1021.5 |
| 20260905211037 | 60 | 225 | 1.0 | 2.0 | 0.00 | 0.08 | 0.08 | 66 | 1021.5 |
| 20260905210028 | 60 | 232 | 0.0 | 2.0 | 0.00 | 0.08 | 0.08 | 65 | 1021.4 |
| 20260905205018 | 60 | 0.0 | 0.0 | 0.00 | 0.08 | 0.08 | 65 | 1021.4 | |
| 20260905204113 | 60 | 0.0 | 0.0 | 0.00 | 0.08 | 0.08 | 64 | 1021.2 | |
| 20260905203103 | 60 | 0.0 | 0.0 | 0.00 | 0.08 | 0.08 | 65 | 1021.3 | |
| 20260905202055 | 60 | 0.0 | 0.0 | 0.00 | 0.08 | 0.08 | 64 | 1021.1 | |
| 20260905201051 | 61 | 0.0 | 0.0 | 0.00 | 0.08 | 0.08 | 63 | 1021.0 | |
| 20260905200043 | 62 | 0.0 | 0.0 | 0.00 | 0.08 | 0.08 | 60 | 1020.8 | |
| 20260905195040 | 63 | 0.0 | 2.0 | 0.00 | 0.08 | 0.08 | 57 | 1020.8 | |
| 20260905194028 | 63 | 214 | 0.0 | 2.0 | 0.00 | 0.08 | 0.08 | 57 | 1020.8 |
| 20260905193018 | 64 | 201 | 1.0 | 2.0 | 0.00 | 0.08 | 0.08 | 56 | 1020.6 |
| 20260905192116 | 64 | 0.0 | 0.0 | 0.00 | 0.08 | 0.08 | 55 | 1020.4 | |
| 20260905191106 | 65 | 204 | 1.0 | 6.0 | 0.00 | 0.08 | 0.08 | 54 | 1020.4 |
| 20260905185055 | 65 | 154 | 1.0 | 4.0 | 0.00 | 0.08 | 0.08 | 53 | 1020.2 |
| 20260905184051 | 66 | 68 | 0.0 | 2.0 | 0.00 | 0.08 | 0.08 | 53 | 1020.0 |
| 20260905183043 | 66 | 244 | 1.0 | 2.0 | 0.00 | 0.08 | 0.08 | 52 | 1020.0 |
| 20260905182040 | 67 | 203 | 1.0 | 2.0 | 0.00 | 0.08 | 0.08 | 52 | 1019.9 |
| 20260905181030 | 68 | 180 | 1.0 | 2.0 | 0.00 | 0.08 | 0.08 | 51 | 1019.8 |
| 20260905180025 | 68 | 135 | 1.0 | 4.0 | 0.00 | 0.08 | 0.08 | 50 | 1019.6 |
| 20260905175016 | 69 | 111 | 3.0 | 7.0 | 0.00 | 0.08 | 0.08 | 48 | 1019.5 |
| 20260905174115 | 70 | 212 | 2.0 | 6.0 | 0.00 | 0.08 | 0.08 | 46 | 1019.3 |
| 20260905173106 | 71 | 245 | 2.0 | 6.0 | 0.00 | 0.08 | 0.08 | 44 | 1019.1 |
| 20260905172101 | 72 | 246 | 3.0 | 9.0 | 0.00 | 0.08 | 0.08 | 43 | 1019.1 |
| 20260905171051 | 72 | 259 | 4.0 | 7.0 | 0.00 | 0.08 | 0.08 | 41 | 1018.9 |
| 20260905170041 | 73 | 245 | 4.0 | 8.0 | 0.00 | 0.08 | 0.08 | 40 | 1018.8 |
| 20260905165037 | 73 | 226 | 3.0 | 6.0 | 0.00 | 0.08 | 0.08 | 39 | 1018.6 |
| 20260905164027 | 74 | 235 | 4.0 | 13.0 | 0.00 | 0.08 | 0.08 | 38 | 1018.7 |
| 20260905163018 | 74 | 262 | 5.0 | 11.0 | 0.00 | 0.08 | 0.08 | 37 | 1018.5 |
| 20260905162114 | 74 | 237 | 5.0 | 11.0 | 0.00 | 0.08 | 0.08 | 39 | 1018.5 |
| 20260905161106 | 74 | 245 | 6.0 | 13.0 | 0.00 | 0.08 | 0.08 | 38 | 1018.3 |
| 20260905155053 | 75 | 250 | 6.0 | 13.0 | 0.00 | 0.08 | 0.08 | 38 | 1018.1 |
| 20260905154042 | 75 | 232 | 6.0 | 9.0 | 0.00 | 0.08 | 0.08 | 38 | 1018.0 |
| 20260905153038 | 75 | 238 | 5.0 | 11.0 | 0.00 | 0.08 | 0.08 | 37 | 1018.0 |
| 20260905152029 | 75 | 211 | 6.0 | 11.0 | 0.00 | 0.08 | 0.08 | 38 | 1018.0 |
| 20260905151025 | 76 | 246 | 6.0 | 14.0 | 0.00 | 0.08 | 0.08 | 37 | 1017.9 |
| 20260905150016 | 75 | 253 | 7.0 | 14.0 | 0.00 | 0.08 | 0.08 | 38 | 1017.8 |
| 20260905145113 | 76 | 254 | 8.0 | 14.0 | 0.00 | 0.08 | 0.08 | 37 | 1017.8 |
| 20260905144107 | 75 | 217 | 7.0 | 13.0 | 0.00 | 0.08 | 0.08 | 38 | 1017.7 |
| 20260905143102 | 75 | 266 | 8.0 | 18.0 | 0.00 | 0.08 | 0.08 | 37 | 1017.7 |
| 20260905142055 | 76 | 246 | 6.0 | 14.0 | 0.00 | 0.08 | 0.08 | 37 | 1017.6 |
| 20260905141049 | 75 | 244 | 8.0 | 17.0 | 0.00 | 0.08 | 0.08 | 36 | 1017.8 |
| 20260905140039 | 76 | 250 | 8.0 | 16.0 | 0.00 | 0.08 | 0.08 | 37 | 1017.7 |
| 20260905135032 | 75 | 234 | 8.0 | 14.0 | 0.00 | 0.08 | 0.08 | 36 | 1017.6 |
| 20260905134026 | 76 | 232 | 8.0 | 15.0 | 0.00 | 0.08 | 0.08 | 38 | 1017.7 |
| 20260905133019 | 75 | 259 | 6.0 | 9.0 | 0.00 | 0.08 | 0.08 | 40 | 1017.5 |
| 20260905132115 | 75 | 234 | 6.0 | 11.0 | 0.00 | 0.08 | 0.08 | 42 | 1017.5 |
| 20260905131105 | 75 | 231 | 7.0 | 11.0 | 0.00 | 0.08 | 0.08 | 42 | 1017.7 |
| 20260905125051 | 74 | 238 | 6.0 | 14.0 | 0.00 | 0.08 | 0.08 | 44 | 1017.6 |
| 20260905124042 | 74 | 248 | 5.0 | 13.0 | 0.00 | 0.08 | 0.08 | 42 | 1017.6 |
| 20260905123039 | 74 | 245 | 6.0 | 11.0 | 0.00 | 0.08 | 0.08 | 45 | 1017.6 |
| 20260905122027 | 75 | 247 | 6.0 | 11.0 | 0.00 | 0.08 | 0.08 | 45 | 1017.6 |
| 20260905121018 | 75 | 231 | 6.0 | 15.0 | 0.00 | 0.08 | 0.08 | 46 | 1017.5 |
| 20260905120016 | 72 | 256 | 9.0 | 15.0 | 0.00 | 0.08 | 0.08 | 49 | 1017.5 |
| 20260905115106 | 72 | 225 | 6.0 | 11.0 | 0.00 | 0.08 | 0.08 | 50 | 1017.5 |
| 20260905114102 | 73 | 228 | 6.0 | 11.0 | 0.00 | 0.08 | 0.08 | 50 | 1017.3 |
| 20260905113052 | 72 | 228 | 5.0 | 13.0 | 0.00 | 0.08 | 0.08 | 52 | 1017.5 |
| 20260905112042 | 72 | 242 | 6.0 | 11.0 | 0.00 | 0.08 | 0.08 | 53 | 1017.5 |
| 20260905111039 | 73 | 172 | 7.0 | 11.0 | 0.00 | 0.08 | 0.08 | 51 | 1017.5 |
| 20260905110031 | 73 | 256 | 6.0 | 14.0 | 0.00 | 0.08 | 0.08 | 52 | 1017.4 |
| 20260905105027 | 72 | 241 | 9.0 | 18.0 | 0.00 | 0.08 | 0.08 | 56 | 1017.5 |
| 20260905104018 | 71 | 262 | 6.0 | 13.0 | 0.00 | 0.08 | 0.08 | 57 | 1017.6 |
| 20260905103116 | 70 | 231 | 7.0 | 14.0 | 0.00 | 0.08 | 0.08 | 58 | 1017.6 |
| 20260905102106 | 70 | 249 | 6.0 | 13.0 | 0.00 | 0.08 | 0.08 | 60 | 1017.8 |
| 20260905101101 | 70 | 233 | 7.0 | 14.0 | 0.00 | 0.08 | 0.08 | 61 | 1017.8 |
| 20260905100053 | 70 | 273 | 5.0 | 11.0 | 0.00 | 0.08 | 0.08 | 63 | 1017.6 |
| 20260905095041 | 69 | 260 | 4.0 | 9.0 | 0.00 | 0.08 | 0.08 | 66 | 1017.8 |
| 20260905094039 | 68 | 216 | 7.0 | 11.0 | 0.00 | 0.08 | 0.08 | 67 | 1017.8 |
| 20260905093029 | 68 | 230 | 5.0 | 11.0 | 0.00 | 0.08 | 0.08 | 68 | 1017.8 |
| 20260905092026 | 68 | 237 | 4.0 | 11.0 | 0.00 | 0.08 | 0.08 | 70 | 1017.9 |
| 20260905091018 | 67 | 234 | 6.0 | 11.0 | 0.00 | 0.08 | 0.08 | 71 | 1017.9 |
| 20260905090115 | 0 | 0.0 | 0.0 | 0.00 | 0.08 | 0.08 | 1017.8 | ||
| 20260905061026 | 60 | 185 | 1.0 | 4.0 | 0.00 | 0.08 | 0.08 | 93 | 1016.7 |
| 20260905060020 | 60 | 210 | 1.0 | 2.0 | 0.00 | 0.08 | 0.08 | 93 | 1016.7 |
| 20260905055018 | 60 | 0.0 | 0.0 | 0.00 | 0.08 | 0.08 | 94 | 1016.6 | |
| 20260905054114 | 59 | 180 | 0.0 | 2.0 | 0.00 | 0.08 | 0.08 | 94 | 1016.4 |
| 20260905053109 | 60 | 180 | 1.0 | 4.0 | 0.00 | 0.08 | 0.08 | 94 | 1016.3 |
| 20260905052106 | 59 | 0.0 | 2.0 | 0.00 | 0.08 | 0.08 | 93 | 1016.1 | |
| 20260905051104 | 59 | 0.0 | 0.0 | 0.00 | 0.08 | 0.08 | 93 | 1016.1 | |
| 20260905050059 | 59 | 0.0 | 0.0 | 0.00 | 0.08 | 0.08 | 93 | 1016.0 | |
| 20260905045056 | 59 | 0.0 | 2.0 | 0.00 | 0.08 | 0.08 | 92 | 1016.0 | |
| 20260905044050 | 59 | 235 | 1.0 | 2.0 | 0.00 | 0.08 | 0.08 | 92 | 1015.8 |
| 20260905043047 | 59 | 0.0 | 0.0 | 0.00 | 0.08 | 0.08 | 93 | 1015.6 | |
| 20260905042044 | 59 | 0.0 | 0.0 | 0.00 | 0.08 | 0.08 | 93 | 1015.5 | |
| 20260905041043 | 59 | 188 | 1.0 | 2.0 | 0.00 | 0.08 | 0.08 | 92 | 1015.4 |